Owen Roberts, Cayman Islands

7:14 AM EST on September 21, 2017 (GMT -0500)
Roberts International

Weather History for MWCR - May, 2013

Change the Weather History Date:

Friday, May 31, 2013

  Actual Average Record
Temperature  
Mean Temperature 78 °F -  
Max Temperature 83 °F 86 °F 90 °F (2017)
Min Temperature 74 °F 78 °F 74 °F (2013)
Cooling Degree Days 14    
Growing Degree Days 28 (Base 50)    
Moisture  
Dew Point 76 °F    
Average Humidity 95    
Maximum Humidity 100    
Minimum Humidity 89    
Precipitation  
Precipitation 0.08 in - - ()
Sea Level Pressure  
Sea Level Pressure 29.95 in    
Wind  
Wind Speed 8 mph ()    
Max Wind Speed 16 mph    
Max Gust Speed 25 mph    
Visibility 5.3 miles    
Events Rain , Thunderstorm    
Averages and records for this station are not official NWS values.
T = Trace of Precipitation, MM = Missing Value Source: Averaged Metar Reports

Daily Weather History Graph

Daily Weather History Graph

Search for Another Location

Airport or City:

Trip Planner

Search our weather history database for the weather conditions in past years. The results will help you decide how hot, cold, wet, or windy it might be!

Date:

Astronomy

May. 31, 2013 Rise Set
Actual Time 5:46 AM EST 6:59 PM EST
Civil Twilight 5:22 AM EST 7:23 PM EST
Nautical Twilight 4:54 AM EST 7:52 PM EST
Astronomical Twilight 4:24 AM EST 8:21 PM EST
Moon 12:09 AM EST (5/31) 12:19 PM EST (5/31)
Length of Visible Light 14h 01m
Length of Day
13h 12m
Waning Gibbous, 51% of the Moon is Illuminated
May 31
Waning Gibbous
May 31
Last Quarter
Jun 8
New
Jun 16
First Quarter
Jun 23
Full

Hourly Weather History & Observations

Time (EST) Temp. Dew Point Humidity Pressure Visibility Wind Dir Wind Speed Gust Speed Precip Events Conditions
5:55 AM 77.0 °F 75.2 °F 94% 29.92 in 6.2 mi SE 5.8 mph - N/A Rain Light Rain
7:00 AM 77 °F 76 °F 95% 29.94 in 6 mi ENE 4.6 mph - - Rain Light Rain
7:00 AM 77.0 °F 75.2 °F 94% 29.92 in 6.2 mi ENE 4.6 mph - N/A Rain Light Rain
7:53 AM 75.2 °F 75.2 °F 100% 29.98 in 2.5 mi East 12.7 mph - N/A Rain Rain Showers
8:52 AM 77.0 °F 77.0 °F 100% 29.98 in 5.0 mi East 10.4 mph - N/A Rain Light Rain
9:50 AM 75.2 °F 75.2 °F 100% 30.01 in 0.6 mi ESE 11.5 mph 25.3 mph N/A Rain Heavy Rain Showers
10:56 AM 75.2 °F 75.2 °F 100% 30.01 in 4.3 mi SE 12.7 mph - N/A Rain Light Rain
11:50 AM 77.0 °F 75.2 °F 94% 29.98 in 4.3 mi SE 15.0 mph - N/A Rain Light Rain
12:56 PM 77.0 °F 75.2 °F 94% 29.98 in 5.0 mi SE 16.1 mph - N/A Rain Light Rain
1:00 PM 83 °F 81 °F 93% 29.98 in 5 mi ESE 16.1 mph - - Thunderstorm Thunderstorm
2:00 PM 77.0 °F 75.2 °F 94% 29.95 in - North - - N/A Rain Light Rain
3:00 PM 78.8 °F 77.0 °F 94% 29.95 in 6.2 mi Variable 2.3 mph - N/A Rain Light Rain
4:00 PM 78.8 °F 77.0 °F 94% 29.92 in 6.2 mi East 4.6 mph - N/A Rain Light Rain
5:00 PM 78.8 °F 77.0 °F 94% 29.89 in 6.2 mi East 8.1 mph - N/A Rain Light Rain
6:00 PM 78.8 °F 75.2 °F 89% 29.92 in 6.2 mi East 8.1 mph - N/A   Overcast
7:00 PM 78.8 °F 75.2 °F 89% 29.92 in 6.2 mi East 9.2 mph - N/A   Overcast
8:00 PM 78.8 °F 77.0 °F 94% 29.95 in 6.2 mi East 13.8 mph - N/A   Overcast
9:00 PM 78.8 °F 77.0 °F 94% 29.95 in 6.2 mi East 6.9 mph - N/A   Mostly Cloudy
10:00 PM 78.8 °F 77.0 °F 94% 29.95 in 6.2 mi ESE 6.9 mph - N/A   Mostly Cloudy